Year,Month,Day,Hour,Minute,Value (Times are PST for temperature in C)
2015,06,28,00,00,20.20
2015,06,28,00,01,20.30
2015,06,28,00,02,20.40
2015,06,28,00,03,20.50
2015,06,28,00,04,20.60
2015,06,28,00,05,20.60
2015,06,28,00,06,20.60
2015,06,28,00,07,20.50
2015,06,28,00,08,20.50
2015,06,28,00,09,20.40
2015,06,28,00,10,20.40
2015,06,28,00,11,20.40
2015,06,28,00,12,20.40
2015,06,28,00,13,20.30
2015,06,28,00,14,20.30
2015,06,28,00,15,20.20
2015,06,28,00,16,20.20
2015,06,28,00,17,20.20
2015,06,28,00,18,20.20
2015,06,28,00,19,20.30
2015,06,28,00,20,20.40
2015,06,28,00,21,20.50
2015,06,28,00,22,20.50
2015,06,28,00,23,20.40
2015,06,28,00,24,20.30
2015,06,28,00,25,20.20
2015,06,28,00,26,20.20
2015,06,28,00,27,20.10
2015,06,28,00,28,20.00
2015,06,28,00,29,19.90
2015,06,28,00,30,19.70
2015,06,28,00,31,19.50
2015,06,28,00,32,19.40
2015,06,28,00,33,19.30
2015,06,28,00,34,19.30
2015,06,28,00,35,19.20
2015,06,28,00,36,19.20
2015,06,28,00,37,19.20
2015,06,28,00,38,19.20
2015,06,28,00,39,19.30
2015,06,28,00,40,19.40
2015,06,28,00,41,19.40
2015,06,28,00,42,19.40
2015,06,28,00,43,19.20
2015,06,28,00,44,19.10
2015,06,28,00,45,19.00
2015,06,28,00,46,18.90
2015,06,28,00,47,18.80
2015,06,28,00,48,18.70
2015,06,28,00,49,18.80
2015,06,28,00,50,18.80
2015,06,28,00,51,19.00
2015,06,28,00,52,19.10
2015,06,28,00,53,19.20
2015,06,28,00,54,19.40
2015,06,28,00,55,19.60
2015,06,28,00,56,19.80
2015,06,28,00,57,20.00
2015,06,28,00,58,20.10
2015,06,28,00,59,20.20
2015,06,28,01,00,20.10
2015,06,28,01,01,20.00
2015,06,28,01,02,19.70
2015,06,28,01,03,19.60
2015,06,28,01,04,19.40
2015,06,28,01,05,19.20
2015,06,28,01,06,19.00
2015,06,28,01,07,18.90
2015,06,28,01,08,18.80
2015,06,28,01,09,18.80
2015,06,28,01,10,18.80
2015,06,28,01,11,18.90
2015,06,28,01,12,18.80
2015,06,28,01,13,18.80
2015,06,28,01,14,18.90
2015,06,28,01,15,18.90
2015,06,28,01,16,18.90
2015,06,28,01,17,18.90
2015,06,28,01,18,18.80
2015,06,28,01,19,18.70
2015,06,28,01,20,18.50
2015,06,28,01,21,18.30
2015,06,28,01,22,18.20
2015,06,28,01,23,18.00
2015,06,28,01,24,17.90
2015,06,28,01,25,17.70
2015,06,28,01,26,17.50
2015,06,28,01,27,17.40
2015,06,28,01,28,17.20
2015,06,28,01,29,17.00
2015,06,28,01,30,16.80
2015,06,28,01,31,16.70
2015,06,28,01,32,16.60
2015,06,28,01,33,16.50
2015,06,28,01,34,16.40
2015,06,28,01,35,16.30
2015,06,28,01,36,16.30
2015,06,28,01,37,16.20
2015,06,28,01,38,16.10
2015,06,28,01,39,16.10
2015,06,28,01,40,16.10
2015,06,28,01,41,16.00
2015,06,28,01,42,16.00
2015,06,28,01,43,16.00
2015,06,28,01,44,15.90
2015,06,28,01,45,15.90
2015,06,28,01,46,15.90
2015,06,28,01,47,15.90
2015,06,28,01,48,15.90
2015,06,28,01,49,15.90
2015,06,28,01,50,15.90
2015,06,28,01,51,15.90
2015,06,28,01,52,15.90
2015,06,28,01,53,15.90
2015,06,28,01,54,15.90
2015,06,28,01,55,16.00
2015,06,28,01,56,16.00
2015,06,28,01,57,16.10
2015,06,28,01,58,16.10
2015,06,28,01,59,16.20
2015,06,28,02,00,16.20
2015,06,28,02,01,16.30
2015,06,28,02,02,16.30
2015,06,28,02,03,16.30
2015,06,28,02,04,16.30
2015,06,28,02,05,16.30
2015,06,28,02,06,16.30
2015,06,28,02,07,16.30
2015,06,28,02,08,16.30
2015,06,28,02,09,16.20
2015,06,28,02,10,16.20
2015,06,28,02,11,16.10
2015,06,28,02,12,16.00
2015,06,28,02,13,15.90
2015,06,28,02,14,15.80
2015,06,28,02,15,15.80
2015,06,28,02,16,15.80
2015,06,28,02,17,15.80
2015,06,28,02,18,15.90
2015,06,28,02,19,15.90
2015,06,28,02,20,15.90
2015,06,28,02,21,15.90
2015,06,28,02,22,15.90
2015,06,28,02,23,15.90
2015,06,28,02,24,15.90
2015,06,28,02,25,15.90
2015,06,28,02,26,15.90
2015,06,28,02,27,15.90
2015,06,28,02,28,15.90
2015,06,28,02,29,15.90
2015,06,28,02,30,15.90
2015,06,28,02,31,15.90
2015,06,28,02,32,15.90
2015,06,28,02,33,15.80
2015,06,28,02,34,15.60
2015,06,28,02,35,15.60
2015,06,28,02,36,15.60
2015,06,28,02,37,15.50
2015,06,28,02,38,15.40
2015,06,28,02,39,15.30
2015,06,28,02,40,15.30
2015,06,28,02,41,15.20
2015,06,28,02,42,15.20
2015,06,28,02,43,15.20
2015,06,28,02,44,15.10
2015,06,28,02,45,15.10
2015,06,28,02,46,15.00
2015,06,28,02,47,15.00
2015,06,28,02,48,15.00
2015,06,28,02,49,15.00
2015,06,28,02,50,15.00
2015,06,28,02,51,15.00
2015,06,28,02,52,15.00
2015,06,28,02,53,15.10
2015,06,28,02,54,15.10
2015,06,28,02,55,15.10
2015,06,28,02,56,15.10
2015,06,28,02,57,15.10
2015,06,28,02,58,15.10
2015,06,28,02,59,15.10
2015,06,28,03,00,15.10
2015,06,28,03,01,15.10
2015,06,28,03,02,15.10
2015,06,28,03,03,15.10
2015,06,28,03,04,15.20
2015,06,28,03,05,15.20
2015,06,28,03,06,15.10
2015,06,28,03,07,15.10
2015,06,28,03,08,15.00
2015,06,28,03,09,14.90
2015,06,28,03,10,14.90
2015,06,28,03,11,14.80
2015,06,28,03,12,14.80
2015,06,28,03,13,14.70
2015,06,28,03,14,14.80
2015,06,28,03,15,14.80
2015,06,28,03,16,14.80
2015,06,28,03,17,14.80
2015,06,28,03,18,14.80
2015,06,28,03,19,14.80
2015,06,28,03,20,14.90
2015,06,28,03,21,14.90
2015,06,28,03,22,14.90
2015,06,28,03,23,15.00
2015,06,28,03,24,15.00
2015,06,28,03,25,15.00
2015,06,28,03,26,14.90
2015,06,28,03,27,14.90
2015,06,28,03,28,14.90
2015,06,28,03,29,14.90
2015,06,28,03,30,14.90
2015,06,28,03,31,15.00
2015,06,28,03,32,15.00
2015,06,28,03,33,15.10
2015,06,28,03,34,15.10
2015,06,28,03,35,15.10
2015,06,28,03,36,15.10
2015,06,28,03,37,15.20
2015,06,28,03,38,15.20
2015,06,28,03,39,15.20
2015,06,28,03,40,15.20
2015,06,28,03,41,15.20
2015,06,28,03,42,15.30
2015,06,28,03,43,15.30
2015,06,28,03,44,15.30
2015,06,28,03,45,15.30
2015,06,28,03,46,15.20
2015,06,28,03,47,15.20
2015,06,28,03,48,15.20
2015,06,28,03,49,15.20
2015,06,28,03,50,15.20
2015,06,28,03,51,15.20
2015,06,28,03,52,15.30
2015,06,28,03,53,15.30
2015,06,28,03,54,15.40
2015,06,28,03,55,15.40
2015,06,28,03,56,15.40
2015,06,28,03,57,15.50
2015,06,28,03,58,15.50
2015,06,28,03,59,15.60
2015,06,28,04,00,15.70
2015,06,28,04,01,15.70
2015,06,28,04,02,15.80
2015,06,28,04,03,15.90
2015,06,28,04,04,15.90
2015,06,28,04,05,15.90
2015,06,28,04,06,15.90
2015,06,28,04,07,15.90
2015,06,28,04,08,15.90
2015,06,28,04,09,15.90
2015,06,28,04,10,15.90
2015,06,28,04,11,15.90
2015,06,28,04,12,15.90
2015,06,28,04,13,15.80
2015,06,28,04,14,15.80
2015,06,28,04,15,15.80
2015,06,28,04,16,15.80
2015,06,28,04,17,15.80
2015,06,28,04,18,15.80
2015,06,28,04,19,15.80
2015,06,28,04,20,15.80
2015,06,28,04,21,15.80
2015,06,28,04,22,15.80
2015,06,28,04,23,15.80
2015,06,28,04,24,15.80
2015,06,28,04,25,15.80
2015,06,28,04,26,15.80
2015,06,28,04,27,15.90
2015,06,28,04,28,15.90
2015,06,28,04,29,15.90
2015,06,28,04,30,15.90
2015,06,28,04,31,15.90
2015,06,28,04,32,15.90
2015,06,28,04,33,15.90
2015,06,28,04,34,15.90
2015,06,28,04,35,15.90
2015,06,28,04,36,16.10
2015,06,28,04,37,16.20
2015,06,28,04,38,16.20
2015,06,28,04,39,16.20
2015,06,28,04,40,16.20
2015,06,28,04,41,16.20
2015,06,28,04,42,16.20
2015,06,28,04,43,16.20
2015,06,28,04,44,16.10
2015,06,28,04,45,16.10
2015,06,28,04,46,16.10
2015,06,28,04,47,16.10
2015,06,28,04,48,16.10
2015,06,28,04,49,16.10
2015,06,28,04,50,16.10
2015,06,28,04,51,16.10
2015,06,28,04,52,16.10
2015,06,28,04,53,16.10
2015,06,28,04,54,16.10
2015,06,28,04,55,16.10
2015,06,28,04,56,16.10
2015,06,28,04,57,16.10
2015,06,28,04,58,16.10
2015,06,28,04,59,16.10
2015,06,28,05,00,16.10
2015,06,28,05,01,16.00
2015,06,28,05,02,16.00
2015,06,28,05,03,16.00
2015,06,28,05,04,16.00
2015,06,28,05,05,16.00
2015,06,28,05,06,16.00
2015,06,28,05,07,16.00
2015,06,28,05,08,16.00
2015,06,28,05,09,16.00
2015,06,28,05,10,16.10
2015,06,28,05,11,16.10
2015,06,28,05,12,16.10
2015,06,28,05,13,16.10
2015,06,28,05,14,16.10
2015,06,28,05,15,16.10
2015,06,28,05,16,16.10
2015,06,28,05,17,16.10
2015,06,28,05,18,16.10
2015,06,28,05,19,16.20
2015,06,28,05,20,16.20
2015,06,28,05,21,16.20
2015,06,28,05,22,16.30
2015,06,28,05,23,16.30
2015,06,28,05,24,16.40
2015,06,28,05,25,16.40
2015,06,28,05,26,16.50
2015,06,28,05,27,16.50
2015,06,28,05,28,16.50
2015,06,28,05,29,16.50
2015,06,28,05,30,16.50
2015,06,28,05,31,16.50
2015,06,28,05,32,16.50
2015,06,28,05,33,16.60
2015,06,28,05,34,16.60
2015,06,28,05,35,16.70
2015,06,28,05,36,16.70
2015,06,28,05,37,16.80
2015,06,28,05,38,16.80
2015,06,28,05,39,16.80
2015,06,28,05,40,16.80
2015,06,28,05,41,16.90
2015,06,28,05,42,16.90
2015,06,28,05,43,16.90
2015,06,28,05,44,16.90
2015,06,28,05,45,16.90
2015,06,28,05,46,16.80
2015,06,28,05,47,16.80
2015,06,28,05,48,16.80
2015,06,28,05,49,16.70
2015,06,28,05,50,16.70
2015,06,28,05,51,16.70
2015,06,28,05,52,16.70
2015,06,28,05,53,16.70
2015,06,28,05,54,16.80
2015,06,28,05,55,16.80
2015,06,28,05,56,16.80
2015,06,28,05,57,16.90
2015,06,28,05,58,16.90
2015,06,28,05,59,16.90
2015,06,28,06,00,16.90
2015,06,28,06,01,16.90
2015,06,28,06,02,16.90
2015,06,28,06,03,16.90
2015,06,28,06,04,16.90
2015,06,28,06,05,16.90
2015,06,28,06,06,16.80
2015,06,28,06,07,16.80
2015,06,28,06,08,16.80
2015,06,28,06,09,16.60
2015,06,28,06,10,16.60
2015,06,28,06,11,16.50
2015,06,28,06,12,16.30
2015,06,28,06,13,16.30
2015,06,28,06,14,16.20
2015,06,28,06,15,16.20
2015,06,28,06,16,16.10
2015,06,28,06,17,16.10
2015,06,28,06,18,16.00
2015,06,28,06,19,16.00
2015,06,28,06,20,16.00
2015,06,28,06,21,16.00
2015,06,28,06,22,15.90
2015,06,28,06,23,15.90
2015,06,28,06,24,15.90
2015,06,28,06,25,15.80
2015,06,28,06,26,15.80
2015,06,28,06,27,15.80
2015,06,28,06,28,15.80
2015,06,28,06,29,15.80
2015,06,28,06,30,15.90
2015,06,28,06,31,15.90
2015,06,28,06,32,15.90
2015,06,28,06,33,15.90
2015,06,28,06,34,15.90
2015,06,28,06,35,15.90
2015,06,28,06,36,15.90
2015,06,28,06,37,15.90
2015,06,28,06,38,15.80
2015,06,28,06,39,15.80
2015,06,28,06,40,15.80
2015,06,28,06,41,15.70
2015,06,28,06,42,15.70
2015,06,28,06,43,15.70
2015,06,28,06,44,15.70
2015,06,28,06,45,15.70
2015,06,28,06,46,15.80
2015,06,28,06,47,15.70
2015,06,28,06,48,15.70
2015,06,28,06,49,15.60
2015,06,28,06,50,15.60
2015,06,28,06,51,15.70
2015,06,28,06,52,15.80
2015,06,28,06,53,15.80
2015,06,28,06,54,15.80
2015,06,28,06,55,15.80
2015,06,28,06,56,15.80
2015,06,28,06,57,15.70
2015,06,28,06,58,15.70
2015,06,28,06,59,15.70
2015,06,28,07,00,15.70
2015,06,28,07,01,15.70
2015,06,28,07,02,15.60
2015,06,28,07,03,15.50
2015,06,28,07,04,15.40
2015,06,28,07,05,15.40
2015,06,28,07,06,15.30
2015,06,28,07,07,15.30
2015,06,28,07,08,15.20
2015,06,28,07,09,15.20
2015,06,28,07,10,15.20
2015,06,28,07,11,15.10
2015,06,28,07,12,15.00
2015,06,28,07,13,15.00
2015,06,28,07,14,14.90
2015,06,28,07,15,15.00
2015,06,28,07,16,15.10
2015,06,28,07,17,15.10
2015,06,28,07,18,15.10
2015,06,28,07,19,15.10
2015,06,28,07,20,15.20
2015,06,28,07,21,15.20
2015,06,28,07,22,15.30
2015,06,28,07,23,15.30
2015,06,28,07,24,15.30
2015,06,28,07,25,15.30
2015,06,28,07,26,15.40
2015,06,28,07,27,15.40
2015,06,28,07,28,15.40
2015,06,28,07,29,15.40
2015,06,28,07,30,15.40
2015,06,28,07,31,15.50
2015,06,28,07,32,15.60
2015,06,28,07,33,15.60
2015,06,28,07,34,15.70
2015,06,28,07,35,15.70
2015,06,28,07,36,15.70
2015,06,28,07,37,15.70
2015,06,28,07,38,15.80
2015,06,28,07,39,15.80
2015,06,28,07,40,15.80
2015,06,28,07,41,15.80
2015,06,28,07,42,15.80
2015,06,28,07,43,15.80
2015,06,28,07,44,15.80
2015,06,28,07,45,15.80
2015,06,28,07,46,15.80
2015,06,28,07,47,15.80
2015,06,28,07,48,15.80
2015,06,28,07,49,15.70
2015,06,28,07,50,15.60
2015,06,28,07,51,15.50
2015,06,28,07,52,15.40
2015,06,28,07,53,15.50
2015,06,28,07,54,15.50
2015,06,28,07,55,15.60
2015,06,28,07,56,15.70
2015,06,28,07,57,15.90
2015,06,28,07,58,16.00
2015,06,28,07,59,16.20
2015,06,28,08,00,16.40
2015,06,28,08,01,16.50
2015,06,28,08,02,16.70
2015,06,28,08,03,16.80
2015,06,28,08,04,17.00
2015,06,28,08,05,17.10
2015,06,28,08,06,17.20
2015,06,28,08,07,17.30
2015,06,28,08,08,17.30
2015,06,28,08,09,17.40
2015,06,28,08,10,17.50
2015,06,28,08,11,17.60
2015,06,28,08,12,17.80
2015,06,28,08,13,18.00
2015,06,28,08,14,18.30
2015,06,28,08,15,18.60
2015,06,28,08,16,18.80
2015,06,28,08,17,18.90
2015,06,28,08,18,19.00
2015,06,28,08,19,19.10
2015,06,28,08,20,19.20
2015,06,28,08,21,19.30
2015,06,28,08,22,19.40
2015,06,28,08,23,19.60
2015,06,28,08,24,19.80
2015,06,28,08,25,19.90
2015,06,28,08,26,20.10
2015,06,28,08,27,20.30
2015,06,28,08,28,20.30
2015,06,28,08,29,20.30
2015,06,28,08,30,20.20
2015,06,28,08,31,20.10
2015,06,28,08,32,20.00
2015,06,28,08,33,20.00
2015,06,28,08,34,19.90
2015,06,28,08,35,19.80
2015,06,28,08,36,19.80
2015,06,28,08,37,19.70
2015,06,28,08,38,19.70
2015,06,28,08,39,19.60
2015,06,28,08,40,19.50
2015,06,28,08,41,19.40
2015,06,28,08,42,19.20
2015,06,28,08,43,19.00
2015,06,28,08,44,18.90
2015,06,28,08,45,18.80
2015,06,28,08,46,18.80
2015,06,28,08,47,18.80
2015,06,28,08,48,18.90
2015,06,28,08,49,19.00
2015,06,28,08,50,19.10
2015,06,28,08,51,19.30
2015,06,28,08,52,19.50
2015,06,28,08,53,19.70
2015,06,28,08,54,19.70
2015,06,28,08,55,19.70
2015,06,28,08,56,19.70
2015,06,28,08,57,20.10
2015,06,28,08,58,20.40
2015,06,28,08,59,20.60
2015,06,28,09,00,20.60
2015,06,28,09,01,20.70
2015,06,28,09,02,20.70
2015,06,28,09,03,20.70
2015,06,28,09,04,20.70
2015,06,28,09,05,20.70
2015,06,28,09,06,20.70
2015,06,28,09,07,20.70
2015,06,28,09,08,20.70
2015,06,28,09,09,20.70
2015,06,28,09,10,20.70
2015,06,28,09,11,20.80
2015,06,28,09,12,20.80
2015,06,28,09,13,20.80
2015,06,28,09,14,20.80
2015,06,28,09,15,20.80
2015,06,28,09,16,20.70
2015,06,28,09,17,20.50
2015,06,28,09,18,20.50
2015,06,28,09,19,20.30
2015,06,28,09,20,20.20
2015,06,28,09,21,20.10
2015,06,28,09,22,20.00
2015,06,28,09,23,19.90
2015,06,28,09,24,19.80
2015,06,28,09,25,19.70
2015,06,28,09,26,19.60
2015,06,28,09,27,19.50
2015,06,28,09,28,19.50
2015,06,28,09,29,19.40
2015,06,28,09,30,19.30
2015,06,28,09,31,19.30
2015,06,28,09,32,19.30
2015,06,28,09,33,19.30
2015,06,28,09,34,19.30
2015,06,28,09,35,19.20
2015,06,28,09,36,19.20
2015,06,28,09,37,19.20
2015,06,28,09,38,19.20
2015,06,28,09,39,19.20
2015,06,28,09,40,19.30
2015,06,28,09,41,19.30
2015,06,28,09,42,19.30
2015,06,28,09,43,19.30
2015,06,28,09,44,19.30
2015,06,28,09,45,19.30
2015,06,28,09,46,19.30
2015,06,28,09,47,19.30
2015,06,28,09,48,19.40
2015,06,28,09,49,19.30
2015,06,28,09,50,19.30
2015,06,28,09,51,19.30
2015,06,28,09,52,19.20
2015,06,28,09,53,19.20
2015,06,28,09,54,19.20
2015,06,28,09,55,19.10
2015,06,28,09,56,19.20
2015,06,28,09,57,19.20
2015,06,28,09,58,19.20
2015,06,28,09,59,19.20
2015,06,28,10,00,19.20
2015,06,28,10,01,19.10
2015,06,28,10,02,19.10
2015,06,28,10,03,19.10
2015,06,28,10,04,19.10
2015,06,28,10,05,19.10
2015,06,28,10,06,19.10
2015,06,28,10,07,19.10
2015,06,28,10,08,19.10
2015,06,28,10,09,19.20
2015,06,28,10,10,19.20
2015,06,28,10,11,19.20
2015,06,28,10,12,19.20
2015,06,28,10,13,19.20
2015,06,28,10,14,19.20
2015,06,28,10,15,19.30
2015,06,28,10,16,19.30
2015,06,28,10,17,19.30
2015,06,28,10,18,19.30
2015,06,28,10,19,19.30
2015,06,28,10,20,19.30
2015,06,28,10,21,19.40
2015,06,28,10,22,19.40
2015,06,28,10,23,19.40
2015,06,28,10,24,19.40
2015,06,28,10,25,19.40
2015,06,28,10,26,19.40
2015,06,28,10,27,19.40
2015,06,28,10,28,19.40
2015,06,28,10,29,19.50
2015,06,28,10,30,19.50
2015,06,28,10,31,19.50
2015,06,28,10,32,19.50
2015,06,28,10,33,19.50
2015,06,28,10,34,19.40
2015,06,28,10,35,19.40
2015,06,28,10,36,19.40
2015,06,28,10,37,19.40
2015,06,28,10,38,19.40
2015,06,28,10,39,19.40
2015,06,28,10,40,19.40
2015,06,28,10,41,19.30
2015,06,28,10,42,19.20
2015,06,28,10,43,18.90
2015,06,28,10,44,18.60
2015,06,28,10,45,18.20
2015,06,28,10,46,17.80
2015,06,28,10,47,17.50
2015,06,28,10,48,17.30
2015,06,28,10,49,17.00
2015,06,28,10,50,16.90
2015,06,28,10,51,16.80
2015,06,28,10,52,16.80
2015,06,28,10,53,16.80
2015,06,28,10,54,16.90
2015,06,28,10,55,16.90
2015,06,28,10,56,17.00
2015,06,28,10,57,16.90
2015,06,28,10,58,16.90
2015,06,28,10,59,16.80
2015,06,28,11,00,16.70
2015,06,28,11,01,16.80
2015,06,28,11,02,16.80
2015,06,28,11,03,16.90
2015,06,28,11,04,17.00
2015,06,28,11,05,17.10
2015,06,28,11,06,17.10
2015,06,28,11,07,17.20
2015,06,28,11,08,17.30
2015,06,28,11,09,17.50
2015,06,28,11,10,17.60
2015,06,28,11,11,17.70
2015,06,28,11,12,17.80
2015,06,28,11,13,17.90
2015,06,28,11,14,18.10
2015,06,28,11,15,18.60
2015,06,28,11,16,18.90
2015,06,28,11,17,19.20
2015,06,28,11,18,19.40
2015,06,28,11,19,19.80
2015,06,28,11,20,20.10
2015,06,28,11,21,20.30
2015,06,28,11,22,20.50
2015,06,28,11,23,20.70
2015,06,28,11,24,20.90
2015,06,28,11,25,21.00
2015,06,28,11,26,21.10
2015,06,28,11,27,21.20
2015,06,28,11,28,21.30
2015,06,28,11,29,21.40
2015,06,28,11,30,21.50
2015,06,28,11,31,21.60
2015,06,28,11,32,21.60
2015,06,28,11,33,21.70
2015,06,28,11,34,21.70
2015,06,28,11,35,21.80
2015,06,28,11,36,21.80
2015,06,28,11,37,21.80
2015,06,28,11,38,21.90
2015,06,28,11,39,21.90
2015,06,28,11,40,21.90
2015,06,28,11,41,21.90
2015,06,28,11,42,21.90
2015,06,28,11,43,21.90
2015,06,28,11,44,21.90
2015,06,28,11,45,22.00
2015,06,28,11,46,22.00
2015,06,28,11,47,21.90
2015,06,28,11,48,21.90
2015,06,28,11,49,21.90
2015,06,28,11,50,21.90
2015,06,28,11,51,21.90
2015,06,28,11,52,21.90
2015,06,28,11,53,21.90
2015,06,28,11,54,21.90
2015,06,28,11,55,22.00
2015,06,28,11,56,22.00
2015,06,28,11,57,22.10
2015,06,28,11,58,22.10
2015,06,28,11,59,22.20
2015,06,28,12,00,22.20
2015,06,28,12,01,22.20
2015,06,28,12,02,22.20
2015,06,28,12,03,22.20
2015,06,28,12,04,22.20
2015,06,28,12,05,22.20
2015,06,28,12,06,22.20
2015,06,28,12,07,22.20
2015,06,28,12,08,22.20
2015,06,28,12,09,22.20
2015,06,28,12,10,22.20
2015,06,28,12,11,22.30
2015,06,28,12,12,22.30
2015,06,28,12,13,22.30
2015,06,28,12,14,22.30
2015,06,28,12,15,22.30
2015,06,28,12,16,22.30
2015,06,28,12,17,22.30
2015,06,28,12,18,22.30
2015,06,28,12,19,22.20
2015,06,28,12,20,22.20
2015,06,28,12,21,22.20
2015,06,28,12,22,22.20
2015,06,28,12,23,22.10
2015,06,28,12,24,22.10
2015,06,28,12,25,22.10
2015,06,28,12,26,22.10
2015,06,28,12,27,22.00
2015,06,28,12,28,22.00
2015,06,28,12,29,22.00
2015,06,28,12,30,22.00
2015,06,28,12,31,22.00
2015,06,28,12,32,22.10
2015,06,28,12,33,22.10
2015,06,28,12,34,22.20
2015,06,28,12,35,22.20
2015,06,28,12,36,22.20
2015,06,28,12,37,22.20
2015,06,28,12,38,22.20
2015,06,28,12,39,22.30
2015,06,28,12,40,22.30
2015,06,28,12,41,22.30
2015,06,28,12,42,22.30
2015,06,28,12,43,22.40
2015,06,28,12,44,22.40
2015,06,28,12,45,22.40
2015,06,28,12,46,22.50
2015,06,28,12,47,22.50
2015,06,28,12,48,22.40
2015,06,28,12,49,22.40
2015,06,28,12,50,22.40
2015,06,28,12,51,22.30
2015,06,28,12,52,22.30
2015,06,28,12,53,22.20
2015,06,28,12,54,22.30
2015,06,28,12,55,22.30
2015,06,28,12,56,22.30
2015,06,28,12,57,22.30
2015,06,28,12,58,22.30
2015,06,28,12,59,22.30
2015,06,28,13,00,22.30
2015,06,28,13,01,22.30
2015,06,28,13,02,22.40
2015,06,28,13,03,22.40
2015,06,28,13,04,22.50
2015,06,28,13,05,22.60
2015,06,28,13,06,22.40
2015,06,28,13,07,22.10
2015,06,28,13,08,21.90
2015,06,28,13,09,21.70
2015,06,28,13,10,21.50
2015,06,28,13,11,21.10
2015,06,28,13,12,20.80
2015,06,28,13,13,20.70
2015,06,28,13,14,20.70
2015,06,28,13,15,20.80
2015,06,28,13,16,20.80
2015,06,28,13,17,20.80
2015,06,28,13,18,20.80
2015,06,28,13,19,20.80
2015,06,28,13,20,20.90
2015,06,28,13,21,20.80
2015,06,28,13,22,20.80
2015,06,28,13,23,20.90
2015,06,28,13,24,21.20
2015,06,28,13,25,21.40
2015,06,28,13,26,21.70
2015,06,28,13,27,21.90
2015,06,28,13,28,22.10
2015,06,28,13,29,22.30
2015,06,28,13,30,22.40
2015,06,28,13,31,22.40
2015,06,28,13,32,22.40
2015,06,28,13,33,22.40
2015,06,28,13,34,22.40
2015,06,28,13,35,22.50
2015,06,28,13,36,22.50
2015,06,28,13,37,22.60
2015,06,28,13,38,22.60
2015,06,28,13,39,22.60
2015,06,28,13,40,22.60
2015,06,28,13,41,22.70
2015,06,28,13,42,22.70
2015,06,28,13,43,22.80
2015,06,28,13,44,22.80
2015,06,28,13,45,22.80
2015,06,28,13,46,22.80
2015,06,28,13,47,22.70
2015,06,28,13,48,22.70
2015,06,28,13,49,22.70
2015,06,28,13,50,22.70
2015,06,28,13,51,22.70
2015,06,28,13,52,22.70
2015,06,28,13,53,22.70
2015,06,28,13,54,22.70
2015,06,28,13,55,22.80
2015,06,28,13,56,22.80
2015,06,28,13,57,22.80
2015,06,28,13,58,22.80
2015,06,28,13,59,22.80
2015,06,28,14,00,22.80
2015,06,28,14,01,22.80
2015,06,28,14,02,22.80
2015,06,28,14,03,22.80
2015,06,28,14,04,22.80
2015,06,28,14,05,22.80
2015,06,28,14,06,22.80
2015,06,28,14,07,22.80
2015,06,28,14,08,22.90
2015,06,28,14,09,22.90
2015,06,28,14,10,22.90
2015,06,28,14,11,22.90
2015,06,28,14,12,22.80
2015,06,28,14,13,22.80
2015,06,28,14,14,22.80
2015,06,28,14,15,22.80
2015,06,28,14,16,22.90
2015,06,28,14,17,22.90
2015,06,28,14,18,23.00
2015,06,28,14,19,23.00
2015,06,28,14,20,23.10
2015,06,28,14,21,23.10
2015,06,28,14,22,23.10
2015,06,28,14,23,23.00
2015,06,28,14,24,22.80
2015,06,28,14,25,22.50
2015,06,28,14,26,22.30
2015,06,28,14,27,22.30
2015,06,28,14,28,22.20
2015,06,28,14,29,22.10
2015,06,28,14,30,22.10
2015,06,28,14,31,21.80
2015,06,28,14,32,21.30
2015,06,28,14,33,20.90
2015,06,28,14,34,20.60
2015,06,28,14,35,20.20
2015,06,28,14,36,19.90
2015,06,28,14,37,19.60
2015,06,28,14,38,19.20
2015,06,28,14,39,18.70
2015,06,28,14,40,18.40
2015,06,28,14,41,18.20
2015,06,28,14,42,18.20
2015,06,28,14,43,18.30
2015,06,28,14,44,18.60
2015,06,28,14,45,18.70
2015,06,28,14,46,18.40
2015,06,28,14,47,18.30
2015,06,28,14,48,18.60
2015,06,28,14,49,19.00
2015,06,28,14,50,19.10
2015,06,28,14,51,18.90
2015,06,28,14,52,18.60
2015,06,28,14,53,18.40
2015,06,28,14,54,18.30
2015,06,28,14,55,18.40
2015,06,28,14,56,18.60
2015,06,28,14,57,18.50
2015,06,28,14,58,18.10
2015,06,28,14,59,17.80
2015,06,28,15,00,18.00
2015,06,28,15,01,18.30
2015,06,28,15,02,17.70
2015,06,28,15,03,17.00
2015,06,28,15,04,17.30
2015,06,28,15,05,17.50
2015,06,28,15,06,17.30
2015,06,28,15,07,17.20
2015,06,28,15,08,17.00
2015,06,28,15,09,16.80
2015,06,28,15,10,16.70
2015,06,28,15,11,16.60
2015,06,28,15,12,16.50
2015,06,28,15,13,16.40
2015,06,28,15,14,16.40
2015,06,28,15,15,16.40
2015,06,28,15,16,16.60
2015,06,28,15,17,16.80
2015,06,28,15,18,17.00
2015,06,28,15,19,17.30
2015,06,28,15,20,17.50
2015,06,28,15,21,17.70
2015,06,28,15,22,17.90
2015,06,28,15,23,18.10
2015,06,28,15,24,18.30
2015,06,28,15,25,18.40
2015,06,28,15,26,18.60
2015,06,28,15,27,18.70
2015,06,28,15,28,18.80
2015,06,28,15,29,18.90
2015,06,28,15,30,19.00
2015,06,28,15,31,19.10
2015,06,28,15,32,19.10
2015,06,28,15,33,19.20
2015,06,28,15,34,19.10
2015,06,28,15,35,18.90
2015,06,28,15,36,18.90
2015,06,28,15,37,18.90
2015,06,28,15,38,19.00
2015,06,28,15,39,19.10
2015,06,28,15,40,19.00
2015,06,28,15,41,18.80
2015,06,28,15,42,18.60
2015,06,28,15,43,18.20
2015,06,28,15,44,17.90
2015,06,28,15,45,17.90
2015,06,28,15,46,18.00
2015,06,28,15,47,18.20
2015,06,28,15,48,18.40
2015,06,28,15,49,18.60
2015,06,28,15,50,18.70
2015,06,28,15,51,18.80
2015,06,28,15,52,18.90
2015,06,28,15,53,19.10
2015,06,28,15,54,19.30
2015,06,28,15,55,19.30
2015,06,28,15,56,19.40
2015,06,28,15,57,19.50
2015,06,28,15,58,19.60
2015,06,28,15,59,19.70
2015,06,28,16,00,19.80
2015,06,28,16,01,19.80
2015,06,28,16,02,19.90
2015,06,28,16,03,19.90
2015,06,28,16,04,20.00
2015,06,28,16,05,20.00
2015,06,28,16,06,20.00
2015,06,28,16,07,20.00
2015,06,28,16,08,20.00
2015,06,28,16,09,20.00
2015,06,28,16,10,20.10
2015,06,28,16,11,20.10
2015,06,28,16,12,20.10
2015,06,28,16,13,20.20
2015,06,28,16,14,20.20
2015,06,28,16,15,20.20
2015,06,28,16,16,20.20
2015,06,28,16,17,20.20
2015,06,28,16,18,20.10
2015,06,28,16,19,20.00
2015,06,28,16,20,19.90
2015,06,28,16,21,19.60
2015,06,28,16,22,19.30
2015,06,28,16,23,19.00
2015,06,28,16,24,18.80
2015,06,28,16,25,18.70
2015,06,28,16,26,18.60
2015,06,28,16,27,18.60
2015,06,28,16,28,18.50
2015,06,28,16,29,18.50
2015,06,28,16,30,18.40
2015,06,28,16,31,18.50
2015,06,28,16,32,18.60
2015,06,28,16,33,18.70
2015,06,28,16,34,18.90
2015,06,28,16,35,19.00
2015,06,28,16,36,19.20
2015,06,28,16,37,19.40
2015,06,28,16,38,19.50
2015,06,28,16,39,19.60
2015,06,28,16,40,19.70
2015,06,28,16,41,19.80
2015,06,28,16,42,19.90
2015,06,28,16,43,20.00
2015,06,28,16,44,20.00
2015,06,28,16,45,20.10
2015,06,28,16,46,20.20
2015,06,28,16,47,20.10
2015,06,28,16,48,20.00
2015,06,28,16,49,19.90
2015,06,28,16,50,19.90
2015,06,28,16,51,19.90
2015,06,28,16,52,19.90
2015,06,28,16,53,20.00
2015,06,28,16,54,20.10
2015,06,28,16,55,20.20
2015,06,28,16,56,20.30
2015,06,28,16,57,20.30
2015,06,28,16,58,20.40
2015,06,28,16,59,20.40
2015,06,28,17,00,20.40
2015,06,28,17,01,20.50
2015,06,28,17,02,20.50
2015,06,28,17,03,20.50
2015,06,28,17,04,20.50
2015,06,28,17,05,20.50
2015,06,28,17,06,20.40
2015,06,28,17,07,20.40
2015,06,28,17,08,20.50
2015,06,28,17,09,20.50
2015,06,28,17,10,20.60
2015,06,28,17,11,20.70
2015,06,28,17,12,20.80
2015,06,28,17,13,20.80
2015,06,28,17,14,20.80
2015,06,28,17,15,20.80
2015,06,28,17,16,20.90
2015,06,28,17,17,20.90
2015,06,28,17,18,20.90
2015,06,28,17,19,20.90